Change the Weather History Date:

Friday, April 26, 2013

  Actual Average Record
Temperature  
Mean Temperature 66 °F -  
Max Temperature 79 °F 75 °F 80 °F (2003)
Min Temperature 55 °F 59 °F 50 °F (2001)
Cooling Degree Days 2    
Growing Degree Days 16 (Base 50)    
Moisture  
Dew Point 51 °F    
Average Humidity 57    
Maximum Humidity 99    
Minimum Humidity 35    
Precipitation  
Precipitation 0.00 in - - ()
Sea Level Pressure  
Sea Level Pressure 30.25 in    
Wind  
Wind Speed 8 mph (East)    
Max Wind Speed 14 mph    
Max Gust Speed -    
Visibility 10 miles    
Events Rain    
Averages and records for this station are not official NWS values.
T = Trace of Precipitation, MM = Missing Value Source: NWS Daily Summary

Daily Weather History Graph

Daily Weather History Graph

Search for Another Location

Airport or City:

Trip Planner

Search our weather history database for the weather conditions in past years. The results will help you decide how hot, cold, wet, or windy it might be!

Date:

Astronomy

Apr. 26, 2013 Rise Set
Actual Time 6:07 AM CDT 7:21 PM CDT
Civil Twilight 5:42 AM CDT 7:46 PM CDT
Nautical Twilight 5:12 AM CDT 8:16 PM CDT
Astronomical Twilight 4:41 AM CDT 8:48 PM CDT
Moon 8:38 PM CDT (4/26) 6:38 AM CDT (4/26)
Length of Visible Light 14h 04m
Length of Day
13h 14m
Full, 99% of the Moon is Illuminated
Apr 26
Full
May 2
Last Quarter
May 9
New
May 17
First Quarter
May 24
Full

Hourly Weather History & Observations

Time (CDT) Temp. Dew Point Humidity Pressure Visibility Wind Dir Wind Speed Gust Speed Precip Events Conditions
12:58 AM 62.4 °F 41.4 °F 46% 30.25 in 10.0 mi NNE 6.9 mph - N/A   Clear
1:58 AM 61.0 °F 41.0 °F 48% 30.23 in 10.0 mi NNE 9.2 mph - N/A   Clear
2:58 AM 60.8 °F 41.0 °F 48% 30.22 in 10.0 mi NE 10.4 mph - N/A   Clear
3:58 AM 59.4 °F 41.0 °F 51% 30.23 in 10.0 mi NE 9.2 mph - N/A   Clear
4:58 AM 57.2 °F 41.4 °F 55% 30.23 in 10.0 mi NE 8.1 mph - N/A   Clear
5:58 AM 55.4 °F 41.9 °F 60% 30.25 in 10.0 mi NE 5.8 mph - N/A   Clear
6:58 AM 56.8 °F 42.4 °F 59% 30.28 in 10.0 mi NE 5.8 mph - N/A   Clear
7:58 AM 62.4 °F 43.2 °F 49% 30.28 in 10.0 mi ENE 10.4 mph - N/A   Clear
8:58 AM 68.0 °F 43.9 °F 42% 30.29 in 10.0 mi ENE 13.8 mph - N/A   Clear
9:58 AM 72.0 °F 45.9 °F 39% 30.29 in 10.0 mi ESE 8.1 mph - N/A   Clear
10:58 AM 74.7 °F 47.7 °F 38% 30.31 in 10.0 mi East 8.1 mph - N/A   Clear
11:58 AM 77.2 °F 49.1 °F 37% 30.30 in 10.0 mi Variable 6.9 mph - N/A   Partly Cloudy
12:58 PM 78.8 °F 49.3 °F 35% 30.29 in 10.0 mi SSE 10.4 mph - N/A   Partly Cloudy
1:58 PM 78.3 °F 49.5 °F 36% 30.27 in 10.0 mi SE 12.7 mph - N/A   Clear
2:58 PM 76.5 °F 55.2 °F 48% 30.25 in 10.0 mi South 11.5 mph - N/A   Clear
3:58 PM 76.5 °F 55.9 °F 49% 30.23 in 10.0 mi SSE 12.7 mph - N/A   Clear
4:58 PM 75.2 °F 57.6 °F 54% 30.24 in 10.0 mi South 8.1 mph - N/A   Clear
5:05 PM 75.2 °F 57.2 °F 53% 30.23 in 10.0 mi SSW 6.9 mph - N/A Rain Light Rain
5:14 PM 75.2 °F 59.0 °F 57% 30.23 in 10.0 mi SSW 6.9 mph - N/A   Clear
5:58 PM 74.1 °F 57.6 °F 56% 30.24 in 10.0 mi SSW 5.8 mph - 0.00 in   Clear
6:58 PM 72.7 °F 57.9 °F 60% 30.23 in 10.0 mi SW 3.5 mph - N/A   Clear
7:58 PM 69.6 °F 59.5 °F 70% 30.23 in 10.0 mi North 2.3 mph - N/A   Clear
8:08 PM 68.0 °F 59.0 °F 73% 30.22 in 10.0 mi NNW 1.2 mph - N/A Rain Light Rain
8:17 PM 66.2 °F 59.0 °F 78% 30.22 in 10.0 mi North - - N/A   Clear
8:29 PM 66.2 °F 59.0 °F 78% 30.22 in 10.0 mi North 1.2 mph - N/A   Clear
9:00 PM 68.0 °F 59.0 °F 73% 30.23 in 10.0 mi Calm Calm - N/A   Clear
9:58 PM 66.0 °F 58.6 °F 77% 30.24 in 10.0 mi Calm Calm - N/A   Clear
10:58 PM 65.5 °F 60.1 °F 83% 30.24 in 10.0 mi SSW 2.3 mph - N/A   Clear
11:58 PM 59.7 °F 59.4 °F 99% 30.24 in 10.0 mi North 3.5 mph - N/A   Clear